This is the latest recevied weather packets stored in our database for station/object WX9WTF. If no packets are shown the sender has not sent any weather packets the latest 10 day(s).
| Time | Temp. | Humidity | Pressure | Rain* | Wind** | Luminosity | Snow |
|---|---|---|---|---|---|---|---|
| 1777776743 | 8.89° C | 76% | 1019.5 hPa | 0 mm | - | 0 W/m² | - |
| 1777776439 | 8.89° C | 73% | 1019.6 hPa | 0 mm | - | 0 W/m² | - |
| 1777776137 | 8.89° C | 73% | 1019.4 hPa | 0 mm | - | 0 W/m² | - |
| 1777775833 | 8.89° C | 67% | 1019.6 hPa | 0 mm | - | 0 W/m² | - |
| 1777775530 | 9.44° C | 70% | 1019.5 hPa | 0 mm | - | 0 W/m² | - |
| 1777775226 | 9.44° C | 68% | 1019.5 hPa | 0 mm | - | 0 W/m² | - |
| 1777774925 | 9.44° C | 67% | 1019.5 hPa | 0 mm | - | 0 W/m² | - |
| 1777774622 | 9.44° C | 67% | 1019.5 hPa | 0 mm | - | 0 W/m² | - |
| 1777774319 | 9.44° C | 67% | 1019.5 hPa | 0 mm | - | 0 W/m² | - |
| 1777774016 | 9.44° C | 64% | 1019.6 hPa | 0 mm | - | 0 W/m² | - |
| 1777773713 | 10° C | 65% | 1019.3 hPa | 0 mm | - | 0 W/m² | - |
| 1777773410 | 10° C | 61% | 1019.4 hPa | 0 mm | - | 0 W/m² | - |
| 1777773107 | 10° C | 61% | 1019.2 hPa | 0 mm | - | 0 W/m² | - |
| 1777772803 | 10.56° C | 58% | 1019.1 hPa | 0 mm | - | 0 W/m² | - |
| 1777772501 | 11.11° C | 57% | 1019.2 hPa | 0 mm | - | 0 W/m² | - |
| 1777772198 | 11.67° C | 57% | 1019.1 hPa | 0 mm | - | 0 W/m² | - |
| 1777771896 | 12.22° C | 55% | 1019.1 hPa | 0 mm | - | 0 W/m² | - |
| 1777771593 | 12.22° C | 53% | 1019.2 hPa | 0 mm | - | 0 W/m² | - |
| 1777771289 | 12.78° C | 53% | 1019.3 hPa | 0 mm | - | 1 W/m² | - |
| 1777770986 | 12.78° C | 50% | 1019 hPa | 0 mm | - | 2 W/m² | - |
| 1777770683 | 13.33° C | 48% | 1019 hPa | 0 mm | - | 4 W/m² | - |
| 1777770379 | 13.33° C | 48% | 1019.1 hPa | 0 mm | - | 6 W/m² | - |
| 1777770077 | 13.89° C | 47% | 1019.2 hPa | 0 mm | - | 10 W/m² | - |
| 1777769774 | 14.44° C | 49% | 1019.3 hPa | 0 mm | - | 13 W/m² | - |
| 1777769471 | 15° C | 47% | 1019.3 hPa | 0 mm | - | 17 W/m² | - |
* Rain latest hour (hover to see other rain measurements)
** Current wind speed in m/s (hover to see current wind gust speed)